SCP
4 4 4 4 4 3 3 3 3 2 1 1 1 1 1 1 1 1 1 0 0 0 0 0 0 1 1 1 1 1 1 1 1 1 1 1 1 1
3 3 3 3 3 3 3 3 3 3 2 1 1 1 1 1 1 1 1 1 0 0 0 0 0 0 0 1 1 1 1 1 1 1 1 1 1 1
2 2 2 2 2 2 2 2 3 3 2 1 1 1 1 1 1 1 1 1 1 0 0 0 0 0 0 0 0 0 0 0 0 1 1 1 1 1
2 2 2 2 1 1 1 2 2 2 2 1 1 1 1 2 2 1 1 1 1 1 0 0 0 0 0 0 0 0 0 0 0 0 0 1 0 0
2 2 2 1 1 1 1 1 1 1 1 1 1 1 1 2 2 1 1 1 1 1 0 0 0 0 0 0 0 0 0 0 0 0 0 0 0 0
2 2 2 1 1 1 1 1 1 1 1 1 1 1 1 2 2 1 1 1 1 1 0 0 0 0 0 0 0 0 0 0 0 0 0 0 0 0
3 2 2 1 1 1 1 1 1 1 1 1 1 1 1 1 1 1 1 1 1 1 1 1 1 1 0 0 0 0 0 0 0 0 0 0 0 0
3 2 2 1 1 1 0 0 0 1 1 1 1 1 1 1 1 1 1 1 1 1 1 1 1 1 1 1 0 0 0 0 0 0 0 0 0 0
4 3 2 1 1 0 0 0 1 0 0 1 1 1 1 1 1 1 1 1 1 1 1 1 1 1 1 1 1 0 0 0 0 0 0 0 0 0
4 4 3 2 1 0 1 1 1 1 0 0 1 1 1 1 1 1 1 1 1 1 1 1 1 1 1 1 1 0 0 0 0 0 0 0 0 0
4 4 3 2 1 0 0 1 1 1 0 0 0 0 0 0 0 0 1 1 1 1 1 1 1 1 1 1 1 0 0 0 0 0 0 0 0 0
4 4 3 2 1 0 0 0 1 1 0 0 0 0 0 0 0 0 1 1 1 1 1 1 1 1 1 1 1 1 1 0 0 0 0 0 0 0
3 3 2 1 0 0 0 0 0 0 0 0 0 0 0 1 1 1 1 1 1 1 1 1 1 1 0 0 1 1 1 1 1 0 0 0 0 0
2 2 2 1 0 0 0 0 0 0 0 1 1 1 1 1 1 1 1 1 1 1 1 1 0 0 0 0 0 1 1 1 1 1 1 0 0 0
1 1 1 0 0 0 0 0 0 0 1 1 1 1 1 1 1 1 1 1 1 1 1 1 1 0 0 0 0 0 0 1 1 1 1 1 0 0
1 1 0 0 0 0 0 0 0 1 1 1 1 1 1 1 1 1 1 1 1 1 1 1 1 1 0 0 0 0 0 0 1 1 1 1 1 0
0 0 1 0 0 0 1 1 1 1 1 1 1 1 1 1 2 2 1 1 1 1 1 1 1 1 1 0 0 0 0 0 0 1 1 0 0 0
0 0 1 1 1 1 1 1 1 1 1 1 1 1 1 1 2 2 2 1 1 1 1 1 1 1 1 0 0 0 0 0 0 0 1 0 0 0
0 0 0 1 1 1 0 1 1 1 1 1 1 1 1 2 2 2 1 1 1 1 1 1 1 1 1 0 0 0 0 0 0 0 1 0 0 0
0 0 0 1 1 1 1 1 1 1 1 1 1 1 2 2 1 1 1 1 1 1 1 1 1 1 1 0 0 0 0 0 0 0 0 0 0 0
0 0 0 1 1 1 1 1 1 1 1 1 1 1 1 1 1 1 1 1 1 1 1 1 1 1 1 0 0 0 0 0 0 0 0 0 0 0
0 0 0 1 1 1 1 1 1 1 1 2 2 2 1 1 1 1 1 1 1 1 0 0 1 1 1 0 0 0 0 0 0 0 0 0 0 0
0 0 0 0 0 1 1 1 1 1 1 2 3 2 2 1 1 1 1 1 0 0 0 0 1 1 1 0 0 0 0 0 0 0 0 0 0 0
Wind_Speed
3 3 2 2 2 1 1 1 1 2 1 1 1 1 1 3 5 4 4 8 9 9 9 8 8 8 8 7 7 7 6 7 7 7 7 8 8 8
3 3 2 1 1 1 2 2 2 2 2 1 1 1 1 2 4 4 4 7 9 10 10 9 9 9 9 9 8 8 8 8 8 8 8 9 9 9
3 3 3 2 1 1 1 1 2 2 2 2 1 1 2 1 2 2 3 4 5 9 10 10 10 9 9 9 9 8 8 8 8 9 9 9 9 9
3 2 2 2 2 2 1 2 2 2 2 3 2 1 2 2 2 3 3 4 3 8 10 9 9 10 10 9 9 9 9 9 9 9 9 10 10 10
3 3 3 3 2 2 2 2 2 2 2 2 3 2 1 2 2 2 3 2 3 5 8 9 10 10 10 10 10 9 9 9 9 10 9 9 9 10
2 2 3 3 3 3 3 3 3 2 2 2 3 2 2 2 2 2 2 2 3 3 4 5 8 10 10 10 10 10 10 10 10 10 10 10 10 9
2 2 3 3 3 3 3 2 2 2 2 3 3 3 2 2 2 2 3 2 3 3 2 3 4 4 5 7 9 10 10 10 11 10 10 10 10 10
3 3 3 3 4 5 4 4 3 4 3 3 3 3 3 3 2 3 3 2 3 2 2 3 3 3 4 4 8 10 11 11 11 11 11 10 10 10
3 2 3 3 3 3 3 5 5 6 6 4 4 4 4 3 2 3 3 2 3 2 2 3 2 3 3 4 8 10 10 11 11 11 11 11 11 11
3 3 3 2 2 2 3 3 3 4 5 4 4 4 4 3 2 3 3 3 3 3 2 3 3 3 3 3 6 9 9 10 10 11 11 11 10 10
3 2 2 2 1 0 2 2 3 3 4 4 5 5 4 3 2 2 2 2 3 3 1 2 2 2 3 3 4 8 9 10 10 10 10 10 10 8
2 2 2 2 1 1 2 2 2 2 2 2 3 3 4 4 5 4 3 3 2 2 2 1 2 1 2 2 2 3 4 7 9 9 10 10 9 5
1 1 1 3 3 3 3 2 3 3 2 2 2 2 2 2 2 3 3 3 3 3 2 1 2 2 2 2 2 2 3 3 4 5 8 10 10 8
2 1 1 3 4 4 3 4 4 3 2 1 1 2 2 2 2 3 3 4 3 4 3 2 2 2 2 3 3 2 2 3 3 4 4 7 8 10
1 1 2 2 3 3 5 4 3 2 2 2 2 2 2 2 2 1 1 2 3 4 4 4 3 3 3 3 3 3 2 2 3 3 3 3 4 5
3 3 4 4 4 4 3 3 3 2 2 2 2 2 1 1 1 1 1 1 2 3 3 4 4 4 3 4 3 4 3 3 3 3 3 3 4 4
2 2 2 2 2 2 2 2 2 2 2 2 2 1 2 2 1 1 1 1 2 2 2 2 3 3 5 4 4 4 4 3 3 3 3 3 4 4
2 3 2 2 2 2 2 2 2 2 2 2 2 2 2 2 2 1 1 1 2 2 2 2 2 2 3 4 5 5 4 3 3 3 3 3 4 4
2 3 3 2 2 2 2 2 2 2 2 2 2 2 2 2 2 2 2 2 2 2 3 2 2 2 3 4 3 4 3 3 3 3 2 3 3 3
3 3 2 2 2 2 2 2 2 1 1 1 2 2 2 2 2 3 2 3 3 3 3 3 3 3 3 4 3 3 5 4 3 3 3 3 3 3
2 2 2 2 2 2 2 2 2 1 1 2 2 2 1 2 2 3 3 4 4 4 4 3 4 5 3 2 3 4 3 5 5 4 3 3 3 3
2 2 2 2 2 2 1 1 1 1 1 2 2 2 2 2 3 4 4 4 3 4 4 3 3 3 3 4 4 4 4 3 4 7 6 5 3 4
2 2 2 2 1 1 1 1 1 2 2 2 2 2 2 3 3 3 4 4 3 4 4 4 3 3 3 4 4 4 4 4 2 2 3 6 8 8
Wind_Direction
229 225 232 236 235 229 221 237 255 270 262 253 242 179 171 154 167 176 172 183 188 193 198 203 206 211 214 216 220 223 224 225 226 226 226 229 231 233
213 218 225 233 235 228 217 222 224 243 269 256 253 231 227 203 180 184 183 185 195 197 200 203 207 210 213 215 218 219 221 224 227 227 227 228 231 234
223 217 216 218 225 244 250 237 234 228 249 266 260 241 215 209 175 197 197 197 192 198 201 205 207 210 212 215 217 217 218 221 224 226 228 227 229 230
219 218 224 224 226 243 249 245 237 230 230 264 274 260 242 213 194 209 226 220 200 197 202 206 208 210 212 214 217 217 218 219 222 225 228 229 230 231
215 214 220 222 225 234 234 248 245 244 219 244 266 256 251 225 202 223 236 234 238 207 202 208 211 212 212 213 215 216 217 218 221 223 226 229 232 233
213 209 216 215 217 228 235 236 242 245 231 234 250 245 242 235 194 205 241 228 239 232 214 209 211 213 215 214 216 216 218 220 222 225 228 230 233 234
229 221 213 211 206 211 233 233 238 240 245 238 243 245 241 227 220 217 230 232 233 225 218 222 208 210 216 223 223 220 218 219 221 224 227 230 232 233
238 235 214 212 203 204 220 229 232 234 244 250 252 252 254 242 239 235 236 242 254 225 218 244 220 210 210 212 213 214 218 221 222 224 226 229 230 232
235 240 251 241 206 207 220 227 239 244 237 236 250 257 261 255 245 253 251 253 257 251 242 255 241 238 225 225 212 210 214 218 220 221 224 227 230 231
227 226 233 252 240 233 231 228 232 240 234 226 238 256 269 276 250 243 247 253 260 252 223 248 254 251 249 231 213 208 212 217 221 224 224 224 225 227
241 229 211 203 230 237 258 253 252 253 240 232 229 234 245 266 263 255 252 252 268 265 242 234 248 256 252 240 218 209 213 218 222 225 225 223 224 223
237 195 168 169 170 180 218 243 258 272 289 273 252 244 238 244 238 228 231 236 257 269 247 234 252 263 273 251 212 201 219 229 228 227 225 225 219 212
262 219 177 174 193 210 216 228 246 260 269 268 254 247 242 237 226 226 225 222 233 249 252 238 259 256 250 267 254 218 207 217 217 228 227 226 216 203
279 297 180 201 208 220 223 235 249 258 260 263 262 262 258 248 239 230 225 225 230 237 250 248 247 251 263 274 270 245 222 218 215 218 216 214 216 215
303 320 295 252 225 224 222 235 234 233 244 248 252 255 254 256 254 236 230 233 247 253 248 241 235 242 249 261 267 264 263 247 227 221 214 201 200 200
257 261 252 248 232 238 230 225 220 226 233 241 251 257 269 268 256 240 241 253 265 269 258 249 239 233 247 254 256 262 253 243 231 221 215 214 209 207
252 257 250 230 220 228 225 209 211 225 238 245 246 258 267 270 271 265 250 250 252 266 275 259 242 237 237 245 258 260 259 255 237 227 225 226 223 217
223 245 248 248 248 242 240 236 225 225 234 239 242 247 257 265 272 272 257 261 269 278 278 268 261 262 261 253 236 253 259 260 259 242 234 233 241 232
215 242 242 240 249 256 258 255 251 243 232 233 239 247 254 269 281 287 284 281 278 277 276 264 255 257 279 286 272 236 248 260 265 261 249 240 245 240
233 246 250 242 239 250 260 264 258 259 263 270 271 274 265 268 278 278 276 276 280 279 275 262 248 242 252 266 273 265 237 239 245 250 251 243 246 253
251 256 255 257 252 253 254 257 260 256 256 260 260 272 274 276 282 281 279 281 276 277 279 273 263 253 251 255 271 271 253 233 237 238 244 246 247 247
256 273 270 266 263 254 248 259 274 274 263 257 255 261 269 269 271 277 279 279 271 276 284 281 272 267 263 262 268 270 269 258 248 251 253 238 226 231
246 258 271 276 292 307 298 296 292 287 283 284 284 276 275 276 276 277 281 284 290 294 294 289 283 272 268 268 272 272 275 275 264 254 263 243 228 231